Skip Page Navigation
NASA JPL Caltech
NASA Logo - Jet Propulsion Laboratory + View the NASA Portal
+ Center for Near-Earth Object Studies
JPL Home Earth Solar System Stars & Galaxies Technology
JPL Solar System Dynamics
BODIES ORBITS EPHEMERIDES TOOLS PHYSICAL DATA DISCOVERY FAQ SITE MAP
JPL Small-Body Database Browser
Search: [ help ]  
109849 (2001 RZ130)
Classification: Main-belt Asteroid          SPK-ID: 2109849
Ephemeris | Orbit Diagram | Orbital Elements | Mission Design | Physical Parameters | Discovery Circumstances | Close-Approach Data ]

[ show orbit diagram ]
Orbital Elements at Epoch 2459000.5 (2020-May-31.0) TDB
Reference: JPL 16 (heliocentric ecliptic J2000)
 Element Value Uncertainty (1-sigma)   Units 
e .09279264845762905 5.0859e-08  
a 3.068832117125963 2.4455e-08 au
q 2.784067057306012 1.5762e-07 au
i 2.606036716306488 4.8695e-06 deg
node 72.17765069255678 0.00012533 deg
peri 267.6466926378498 0.00012805 deg
M 184.2986130319196 2.7253e-05 deg
tp 2459958.864706964743
(2023-Jan-14.36470696)
0.00015234 TDB
period 1963.62305648723
5.38
2.3472e-05
6.426e-08
d
yr
n .1833345757530532 2.1915e-09 deg/d
Q 3.353597176945914 2.6724e-08 au
  Orbit Determination Parameters
   # obs. used (total)      486  
   data-arc span      6716 days (18.39 yr)  
   first obs. used      2001-09-12  
   last obs. used      2020-02-01  
   planetary ephem.      DE431  
   SB-pert. ephem.      SB431-N16  
   condition code      0  
   norm. resid. RMS      .55322  
   source      ORB  
   producer      Otto Matic  
   solution date      2020-Feb-24 03:34:22  

Additional Information
 Earth MOID = 1.77687 au 
 Jupiter MOID = 1.99038 au 
 T_jup = 3.223 
[ show covariance matrix ]

Ephemeris | Orbit Diagram | Orbital Elements | Mission Design | Physical Parameters | Discovery Circumstances | Close-Approach Data ]

Physical Parameter Table
Parameter Symbol Value Units Sigma Reference Notes
absolute magnitude H 15.0   n/a MPO432619  

109849 (2001 RZ130)          Discovered 2001-Sep-12 by LINEAR at Socorro
Reference: 20051019/Numbers.arcLast Updated: 2005-10-26

[ show close-approach data ]
Alternate Designations
 2001 RZ130 = 2004 DZ28 
Ephemeris | Orbit Diagram | Orbital Elements | Mission Design | Physical Parameters | Discovery Circumstances | Close-Approach Data ]
ABOUT SSD CREDITS/AWARDS PRIVACY/COPYRIGHT GLOSSARY LINKS
FirstGov 2020-Aug-04 23:45 UT
(server date/time)  
NASA Home Page
Site Manager:   Ryan S. Park
Webmaster  Alan B. Chamberlin